Messwerte Saint-Pierre

Temperatur

Temperatur
°C
1618956000 2.00 2.00 24
1618959600 3.00 3.00
1618963200 4.00 4.00
1618966800 5.00 5.00
1618970400 6.00 6.00
1618974000 7.00 7.00
1618977600 8.00 8.00
1618981200 9.00 9.00 26
1618984800 10.00 10.00 26
1618988400 11.00 11.00 27
1618992000 12.00 12.00 27
1618995600 13.00 13.00 27
1618999200 14.00 14.00 27
1619002800 15.00 15.00
1619006400 16.00 16.00 26
1619010000 17.00 17.00 25
1619013600 18.00 18.00 25
1619017200 19.00 19.00 25
1619020800 20.00 20.00 25
1619024400 21.00 21.00 25
1619028000 22.00 22.00 25
1619031600 23.00 23.00 25
1619035200 0.00 0.00 25
1619038800 1.00 1.00 25

Aktuellste Messwerte

Wettercharakter
Wetter: meist klar
Temperatur
25 °C
Feuchtigkeit
80 %
Wind
25 km/hWindrichtung: Südost
Luftdruck
1016 hPa
Messzeit: 22. April 2021, 1.00Datenquelle: METAR

Weitere Messstationen in der Nähe

Messstation Temperatur Entfernung
Saint-Denis 26 °C 49 km
Mahebourg / Mauritius 26 °C 253 km

Wind

Windrichtung Böen Mittelwind
° km/h km/h
1618956000 2.00 1.00 - 2.00 100° 15
1618959600 3.00 2.00 - 3.00 90° 20
1618963200 4.00 3.00 - 4.00 120° 15
1618966800 5.00 4.00 - 5.00 110° 30
1618970400 6.00 5.00 - 6.00 80° 15
1618974000 7.00 6.00 - 7.00 100° 15
1618977600 8.00 7.00 - 8.00 100° 20
1618981200 9.00 8.00 - 9.00 110° 20
1618984800 10.00 9.00 - 10.00 100° 20
1618988400 11.00 10.00 - 11.00 110° 20
1618992000 12.00 11.00 - 12.00 110° 25
1618995600 13.00 12.00 - 13.00 110° 25
1618999200 14.00 13.00 - 14.00 120° 25
1619002800 15.00 14.00 - 15.00 110° 30
1619006400 16.00 15.00 - 16.00 120° 30
1619010000 17.00 16.00 - 17.00 110° 30
1619013600 18.00 17.00 - 18.00 120° 30
1619017200 19.00 18.00 - 19.00 110° 20
1619020800 20.00 19.00 - 20.00 110° 25
1619024400 21.00 20.00 - 21.00 120° 25
1619028000 22.00 21.00 - 22.00 120° 25
1619031600 23.00 22.00 - 23.00 110° 20
1619035200 0.00 23.00 - 0.00 120° 25
1619038800 1.00 0.00 - 1.00 120° 25

Ihre Wetterstation

Fehlt Ihre Wetterstation auf unserem Portal?

Schreiben Sie an network@meteonews.ch

Klima

Wann ist es am wärmsten? Wann regnet es am wenigsten? Unsere Klimadaten geben Auskunft.